Terminal Aerodrome Forecast
Issued by NWS

Home | Current Version | Previous Version | Text Only | Print | Product List | Glossary On
Versions: 1 2 3 4 5 6 7 8 9 10 11 12 13 14 15 16 17 18 19 20 21 22 23 24 25 26 27 28
000
FTUS44 KEWX 291128
TAFSSF
TAF
KSSF 291128Z 2912/3012 12007KT 5SM BR OVC009
     FM291600 15008KT 6SM HZ VCSH BKN012 OVC035
     FM291900 14009KT P6SM VCTS BKN035CB
     FM300000 23005KT P6SM SCT030
     FM300600 VRB03KT 5SM BR BKN008=

USA.gov is the U.S. government's official web portal to all federal, state and local government web resources and services.